Regional Weather Roundup
Issued by NWS

Home | Current Version | Previous Version | Text Only | Print | Product List | Glossary On
Versions: 1 2 3 4 5 6 7 8 9 10 11 12 13 14 15 16 17 18 19 20 21 22 23 24 25 26 27 28 29 30 31 32 33 34 35 36 37 38 39 40 41 42 43 44 45 46 47 48 49 50
000
ASUS43 KMKX 240700
RWRWI

WISCONSIN REGIONAL WEATHER ROUNDUP
NATIONAL WEATHER SERVICE MILWAUKEE/SULLIVAN WI
200 AM CDT TUE OCT 24 2017

NOTE: "FAIR" INDICATES FEW OR NO CLOUDS BELOW 12,000 FEET WITH NO
SIGNIFICANT WEATHER AND/OR OBSTRUCTIONS TO VISIBILITY.

WIZ001-002-006>008-014>016-023>028-240800-
NORTHWEST WISCONSIN

CITY           SKY/WX    TMP DP  RH WIND       PRES   REMARKS
SUPERIOR ARPT  CLOUDY    44  35  68 N15G21    29.79F
ASHLAND        CLOUDY    44  35  70 NW12G22   29.71F
HAYWARD        CLOUDY    44  34  67 N9G21     29.72F
SIREN          CLOUDY    43  32  64 N16G23    29.79S
CUMBERLAND     CLOUDY    41  32  70 N24G33    29.74S
RICE LAKE      CLOUDY    44  34  67 NW13G22   29.74F
CHETEK         CLOUDY    44  36  72 N7        29.72S
LADYSMITH      CLOUDY    44  37  76 NW20G29   29.69F
EAU CLAIRE     CLOUDY    45  34  65 NW12G24   29.70F
MENOMONIE      CLOUDY    46  34  62 NW16G26   29.73F
NEW RICHMOND   CLOUDY    44  31  61 N18G29    29.79S
OSCEOLA        CLOUDY    44  32  62 NW16G24   29.83F
$$

WIZ003>005-009-010-017-018-240800-
NORTH CENTRAL WISCONSIN

CITY           SKY/WX    TMP DP  RH WIND       PRES   REMARKS
MANITOWISH WTR LGT RAIN  41  41 100 NW16G28   29.61F
ARBOR VITAE    CLOUDY    43  41  94 NW13G25   29.59F
WOODRUFF       CLOUDY    43  41  94 NW13G25   29.59F
RHINELANDER    CLOUDY    43  42  97 NW14G25   29.57F
EAGLE RIVER    CLOUDY    43  43  99 N17G29    29.56S
LAND O LAKES   CLOUDY    45  43  94 NW9G21    29.58F
PHILLIPS       CLOUDY    41  39  94 NW9G23    29.64F
TOMAHAWK       RAIN      42  40  93 NW13G22   29.60S
MEDFORD        LGT RAIN  42  39  89 N17G31    29.61F
MERRILL        RAIN      44  43  97 N14G24    29.58F
$$

WIZ029-030-035-036-043>047-240800-
CENTRAL WISCONSIN

CITY           SKY/WX    TMP DP  RH WIND       PRES   REMARKS
WAUSAU         LGT RAIN  45  42  89 NW12G23   29.55F
MOSINEE        DRIZZLE   45  43  93 NW16G24   29.57F
MARSHFIELD     LGT RAIN  44  40  85 NW15G26   29.59F
STEVENS POINT  DRIZZLE   45  44  96 NW12G23   29.56F
WAUPACA        DRIZZLE   51  49  93 NW12      29.52F
WAUTOMA        LGT RAIN N/A N/A N/A NW14G21   29.53F
WISC RAPIDS    LGT RAIN  47  44  90 N15G23    29.58S
CAMP DOUGLAS   LGT RAIN  45  45 100 NW14      29.60F
$$

WIZ011>013-019>022-031-037>040-048>050-240800-
NORTHEAST WISCONSIN

CITY           SKY/WX    TMP DP  RH WIND       PRES   REMARKS
ANTIGO         CLOUDY    46  43  90 N20G26    29.53F
SHAWANO        DRIZZLE   52  46  79 NW10      29.49F
OCONTO         CLOUDY    49  42  79 N7        29.46F
STURGEON BAY   LGT RAIN  49  45  86 NW9       29.46F
GREEN BAY      CLOUDY    50  46  86 NW8       29.47F
MANITOWOC      LGT RAIN  49  45  86 W9        29.47F
APPLETON       CLOUDY    50  43  76 NW10      29.48F
CLINTONVILLE   DRIZZLE   52  45  76 N9        29.50F
OSHKOSH        CLOUDY    51  47  86 NW10      29.49F
$$

WIZ032>034-041-042-053>061-240800-
SOUTHWEST WISCONSIN

CITY           SKY/WX    TMP DP  RH WIND       PRES   REMARKS
LA CROSSE      CLOUDY    48  40  73 NW16G29   29.67F
SPARTA         RAIN      44  42  93 NW14G21   29.66F
VIROQUA        CLOUDY    43  43  98 NW15      29.66S
BOSCOBEL       LGT RAIN  47  42  83 W6        29.66F
PRAIRIE DU CHI CLOUDY    47  35  61 NW12G23   29.68F
PLATTEVILLE    CLOUDY    47  44  91 NW10G18   29.65S
$$

WIZ056-057-062-063-064-067-068-240800-
SOUTH CENTRAL WISCONSIN

CITY           SKY/WX    TMP DP  RH WIND       PRES   REMARKS
REEDSBURG      LGT RAIN  45  45 100 NW10G21   29.59F
BARABOO/DELLS  LGT RAIN  46  44  93 NW13G20   29.58F
LONE ROCK      LGT RAIN  47  44  90 W16       29.62F
MINERAL POINT  LGT RAIN  46  45  93 NW14      29.62S
MADISON        RAIN      47  45  93 NW10G18   29.55F FOG
MIDDLETON      CLOUDY    47  47  97 W17G24    29.57F
WATERTOWN      DRIZZLE   47  47 100 W9        29.52F
MONROE         LGT RAIN  45  43  93 NW14G22   29.59F
JANESVILLE     RAIN      46  46 100 W10       29.56F
$$

WIZ051-052-058>065-066-070>072-240800-
SOUTHEAST WISCONSIN

CITY           SKY/WX    TMP DP  RH WIND       PRES   REMARKS
MILWAUKEE      LGT RAIN  51  49  92 W8        29.50F
WAUKESHA       LGT RAIN  46  45  93 W10       29.53F
MILWAUKEE/TIMM CLOUDY    50  45  81 W7        29.51F
RACINE         LGT RAIN  50  48  93 W9        29.52F
BURLINGTON     RAIN      47  47 100 W12G20    29.53F
KENOSHA        LGT RAIN  49  46  90 W12       29.52F
FOND DU LAC    CLOUDY    50  46  86 NW9       29.50S
SHEBOYGAN      CLOUDY    50  48  93 W9        29.48F
WEST BEND      RAIN      48  46  93 NW7       29.50F
JUNEAU         LGT RAIN  47  46  96 W5        29.52F
$$

LSZ147-162-240800-
LAKE SUPERIOR

STATION/POSITION TIME  TEMP    WIND        PRES    WAVE
                       AIR SEA DIR/SP/G            HT/PER
                 (UTC) (F)     (DEG/KT/KT) (MB)    (FT/S)
W MID LAKE BUOY  0550   50 51              1003.1F   5/ 5
DEVILS ISLAND    0600   46     330/ 31/ 37 1006.1F
PORT WING        0640          330/ 22/ 28 1007.8F
SAXON HARBOR     0640   48     330/ 25/ 29 1004.7F
$$

LMZ867-665-643>646-240800-
LAKE MICHIGAN

STATION/POSITION TIME  TEMP    WIND        PRES    WAVE
                       AIR SEA DIR/SP/G            HT/PER
                 (UTC) (F)     (DEG/KT/KT) (MB)    (FT/S)
S GREEN BAY BUOY 0630   52 58  310/ 16/ 17  997.8F
N MID LAKE BUOY  0550   50 56  330/ 25/ 31  996.0F   4/ 5
NORTHPORT PIER   0640   52     330/ 24/ 31  996.3F
KEWAUNEE LAKESHO 0630   49     300/  4/  8  997.0F
SHEBOYGAN LAKESH 0600   50     260/  4/  5  998.4F
PORT WASHINGTON  0630   52     290/  6/ 14  999.7F
MILWAUKEE LAKESH 0620   51     270/ 10/ 12   N/A
S MID LAKE BUOY  0550   54 60  310/ 16/ 19  999.6F   2/ 5
KENOSHA   LAKESH 0600   51     290/  8/ 16 1000.3
$$

TC  - TEMPERATURE IN CELSIUS
VSB - VISIBILITY IN STATUTE MILES
WCI - WIND CHILL INDEX
HX  - HEAT INDEX





USA.gov is the U.S. government's official web portal to all federal, state and local government web resources and services.